Showing default

COSMOS 1168, 11735

Orbit data source: Space-Track

COSMOS 1168, 11735 is a payload satellite owned by VMF (CIS) in LEO that was launched on Mon, 17 Mar 1980 UTC via a KOSMOS 11K65M launch vehicle from the Plesetsk Missile And Space Complex (PKMTR). Payload-class satellites include a variety of spacecraft equipped with specific instruments for various scientific and technological missions. These include communications satellites like Starlink; space stations such as the ISS; scientific satellites like the Hubble; Earth observation satellites from companies like Planet Labs, Umbra, and HawkEye 360; GPS; miniature CubeSats for education and research; and military/defense satellites.

Loading next visibility...
Identifier
11735, 1980-022A
Orbit
LEO
Country
Flag of CISCIS
Related business
Manufacturer
Omsk Av. Zav.
Mission
Spacecraft
Bus & Motor
KAUR-1 11F643, Unknown motor
Mass
800 kg wet, 800 kg dry
Launch date (UTC)
1980-03-17 (46 years ago)
Launch vehicle
KOSMOS 11K65M
Launch site
Plesetsk Missile And Space Complex (PKMTR)
Object type
Payload
Rocket body
Debris
Shape & HBR
Unknown
Radar Cross Section
Large (>1 m²)

Expand to show TLE details & history
Last TLE update: 9 hours ago

TLE from 9 hours ago
0 COSMOS 1168
1 11735U 80022A   25304.86787487  .00000113  00000-0  10245-3 0  9998
2 11735  82.9445  83.5543 0034142 278.0741 192.0595 13.75224975288770
Epoch: 2025-10-31T20:49Z
TLE epoch observation values (Epoch: 2025-10-31T20:49:44.388Z)
Latitude
68.86779°
Longitude
-107.8627°
Altitude
1,017.37 km
Speed
7.337 km/s
True Right ascension
16h 19m 54s
True Declination
68° 45' 21"
Sunlit
Object was in daylight at epoch
Visualization orbit readout
Latitude
Unknown
Longitude
Unknown
Altitude
Unknown
Speed
Unknown
Apparent Right ascension
Unknown
Apparent Declination
Unknown
Sunlit
N/A
Visualization observer readout
Local Sidereal Time
01:13:18
Azimuth
Unknown
Elevation
Unknown
Doppler factor
Unknown
Orbital elements
Apogee altitude
1,003.136 km
Perigee altitude
952.905 km
Semi-major axis
7,356.157 km
Eccentricity
0.00341
Inclination
82.9445°
RAAN
83.5543°
Arg. of periapsis
278.0741°
True anomaly
191.9781°
Mean anomaly
192.0595°
Eccentric anomaly
192.01877°
Mean motion
3.44006 °/min
Orbital period
104.65 mins
BSTAR
0.00010245
Loading maneuver chart data...
Computing Atmospheric mass density...
Loading historical data...
Loading historical data...
Loading historical data...
Loading historical data...
Loading historical data...
Loading historical data...
Loading historical data...
Other satellites on launch #22 in the year 1980 (1980-03-17 UTC)

Documentation

Showing up to 5 results
|